CAPE
1440 1879 2047 2514 2757 2785 2724 2639 2616 2471 2370 2271 2132 2027 1904 1895 1893 1902 1782 1717 1511 1492 1504 1461 1351 1406 1374 1320 1251 1207 1133 1081 990 974 970 985 613 510 424 383 325 340 302 238 104 96 87 132 204 341 488 480 642 773 1363 1313 1150 1195 1125 1356 1387 1298 1466 1388 1475 1459 1478 1637 1549 1562 1434 1420 1381 1450 1499 1453 1435 1298 1150 1026 1009 860 975 1099 1089
1629 1795 2132 2540 2630 2679 2701 2648 2620 2496 2356 2220 2108 2010 1918 1824 1944 1793 1757 1651 1563 1558 1589 1516 1399 1363 1404 1316 1257 1183 1143 972 908 776 804 692 559 442 425 373 270 260 276 274 324 322 265 280 261 262 359 577 711 727 1061 1114 1171 1164 1305 1254 1199 1253 1539 1621 1688 1560 1642 1600 1581 1468 1380 1420 1322 1448 1464 1418 1419 1404 1316 1340 1244 920 911 1103 1232
1693 1866 2187 2624 2637 2622 2695 2731 2591 2459 2375 2255 2142 2007 1982 1968 1878 1636 1781 1714 1555 1542 1613 1572 1455 1409 1360 1374 1278 1194 1100 954 762 627 542 570 547 334 361 327 323 293 268 306 336 321 329 313 318 305 376 511 588 716 884 1130 1163 1213 1211 1217 1351 1403 1573 1884 1853 1830 1605 1501 1339 1417 1400 1376 1281 1288 1319 1329 1341 1272 1237 1216 1183 1099 961 1205 1134
1708 1865 2075 2506 2618 2588 2734 2598 2439 2370 2297 2195 2154 2028 2040 2032 1950 1896 1840 1753 1561 1583 1618 1586 1539 1547 1514 1430 1371 1186 989 842 713 626 538 436 418 435 364 314 329 378 433 454 461 423 398 396 454 375 284 383 535 597 741 885 978 888 1053 976 1240 1290 1530 1592 1890 1672 1543 1278 1149 956 967 763 1009 1149 1045 1060 1067 1032 1081 1082 1060 1074 1017 1014 1094
1624 1802 2169 2385 2450 2621 2613 2512 2407 2340 2206 2171 2126 2067 2094 2032 1920 1922 1778 1774 1584 1537 1602 1618 1602 1616 1528 1433 1327 1170 984 806 739 653 693 513 485 429 404 392 353 416 496 454 549 432 383 545 445 315 418 376 416 513 528 611 670 708 720 768 766 959 1086 1396 1641 1818 1427 1183 805 614 601 643 744 995 970 995 882 781 754 688 786 855 801 829 888
1292 1645 2079 2275 2395 2581 2594 2454 2397 2290 2189 2188 2154 2132 2210 2082 1997 1964 1894 1816 1685 1659 1673 1648 1600 1587 1500 1391 1297 1224 957 835 741 662 554 742 765 417 421 476 586 546 641 688 756 831 810 724 603 450 484 503 482 518 489 478 514 494 576 625 616 707 945 1107 1197 1441 1966 1558 1085 397 406 519 598 755 896 834 842 790 659 548 653 556 458 712 796
1336 1487 1642 2060 2310 2518 2556 2446 2374 2234 2193 2212 2190 2243 2248 2037 1924 1908 1918 1776 1750 1701 1670 1608 1547 1512 1396 1310 1242 1165 994 929 924 625 518 779 1028 879 708 628 723 663 656 718 1101 1261 1163 1058 718 366 472 534 576 430 378 402 378 443 510 592 701 757 1073 858 666 854 1061 1018 124 64 184 356 407 507 702 634 640 561 543 488 436 490 487 390 565
1288 1431 1458 1929 2274 2465 2466 2384 2297 2248 2280 2239 2238 2305 2136 2095 2040 2022 2026 1912 1767 1641 1624 1551 1507 1442 1314 1267 1176 1176 1175 1141 963 604 547 796 1634 1123 752 675 727 896 864 1153 1217 1396 1274 1271 1266 588 424 478 529 451 387 366 316 348 471 566 789 882 864 1349 1116 1606 1518 1018 170 15 23 226 342 407 686 496 281 229 260 417 344 247 240 323 338
1093 1137 1386 1966 2236 2422 2319 2245 2276 2326 2292 2276 2283 2228 2242 2146 2160 2191 2080 2003 1825 1571 1575 1526 1501 1326 1145 1142 1194 1187 1211 1239 925 777 683 977 1445 1516 1209 1060 940 978 1118 1460 1513 1420 1437 1374 1256 999 379 350 440 393 297 283 476 509 536 414 619 1101 791 1480 1804 341 20 1 2 0 16 40 97 246 443 195 116 182 309 288 370 320 270 261 261
942 1093 1589 1978 2185 2374 2234 2201 2268 2311 2244 2193 2221 2240 2184 2155 2216 2164 2029 1883 1784 1620 1545 1546 1463 1308 1180 1091 1039 1200 1264 1253 993 912 950 1085 1305 1293 1159 1027 1088 1154 1211 1359 1539 1530 1420 1292 1122 1138 773 408 446 382 343 346 326 513 541 688 770 1280 1326 1460 1353 283 83 61 68 93 256 213 133 187 221 158 87 377 215 339 249 178 188 266 228
859 1187 1541 1902 2118 2164 2157 2211 2214 2256 2231 2179 2101 2196 2206 2186 2137 2071 1941 1855 1720 1574 1527 1573 1494 1366 1238 1002 929 1119 1227 1236 1141 1102 1144 1302 1381 1122 1095 1337 1608 1888 1820 1765 1611 1459 1356 1331 1244 1215 1263 990 624 478 424 495 483 434 580 671 873 983 982 1334 1109 56 60 65 92 169 344 325 54 108 101 263 315 218 183 183 148 119 94 107 161
910 1056 1456 1914 2122 2084 2125 2175 2230 2250 2242 2131 2160 2154 2114 2202 2107 2052 1900 1814 1766 1481 1526 1605 1602 1420 1214 1179 1173 1183 1211 1260 1228 1270 1312 1420 1303 1344 2073 2086 2053 1955 1827 1582 1501 1465 1423 1351 1204 1210 1191 1162 1029 970 682 559 768 681 758 651 774 802 840 1273 1093 8 7 6 6 6 21 128 145 211 127 327 278 217 121 79 136 110 105 91 71
837 1149 1665 1873 1998 2075 2084 2176 2287 2252 2189 2148 2152 2098 2130 2144 1992 2054 2003 1898 1772 1672 1601 1678 1594 1572 1526 1500 1322 1215 1240 1347 1426 1586 1642 1683 1856 2053 2230 2210 2055 1878 1573 1528 1506 1415 1322 1250 1241 1274 1289 1335 1244 1182 1051 866 749 760 564 615 616 800 1030 1613 17 8 4 0 0 0 0 2 26 86 212 251 206 183 128 145 141 129 102 82 48
1169 1469 1667 1743 1899 2184 2079 2128 2186 2183 2113 2166 2058 2121 2131 2107 2022 2028 1982 1904 1798 1758 1725 1739 1691 1693 1751 1649 1722 1738 1704 1908 1814 1873 1719 2204 2372 2163 2053 2108 1936 1677 1554 1509 1435 1265 1186 1182 1192 1352 1440 1456 1408 1237 1149 977 751 852 555 528 712 833 1586 760 337 46 32 25 32 2 3 47 104 172 176 234 202 142 135 96 97 97 90 78 93
1122 1316 1529 1668 1872 1994 2182 2097 2057 1967 1974 2039 2042 2007 2030 2019 2032 1950 1940 1903 1872 1823 1840 1827 1837 1855 1917 1976 1920 1977 1940 1907 1918 1956 2037 2162 2152 2001 1972 1926 1697 1603 1484 1338 1278 1358 1404 1284 1266 1336 1320 1378 1376 1379 1086 796 1020 781 691 772 1136 1216 1602 1185 148 44 48 48 26 25 156 164 289 260 291 146 56 88 82 68 90 104 112 118 106
941 1182 1423 1562 1693 1797 1918 2112 1945 1846 1851 2006 1988 2036 2059 2006 1940 1971 1997 2000 1955 1973 1942 1980 1990 1992 1914 1826 1870 1999 2005 1990 2034 2166 2230 2202 2044 2000 1859 1775 1630 1457 1285 1176 1422 1319 1283 1247 1338 1375 1388 1346 1310 1270 1152 960 1053 687 1055 952 1417 1662 2527 509 0 0 1 14 24 25 13 104 385 188 134 102 88 92 83 119 104 88 72 68 63
681 1056 1324 1486 1584 1681 1702 1677 1860 1896 1862 1950 2029 2046 1971 1927 1941 1997 2020 2085 2074 2038 2085 2019 1927 1777 1772 1799 1824 1975 2077 2225 2314 2256 2119 1988 1951 1781 1753 1639 1523 1310 1251 1322 1447 1380 1327 1308 1297 1308 1352 1339 1292 1072 1016 1209 1323 1205 1290 1429 1723 2163 600 272 178 39 35 41 13 0 0 6 118 137 80 39 105 92 216 194 181 160 185 162 133
734 927 1206 1385 1483 1519 1599 1640 1699 1567 1661 1911 2073 1994 2000 1965 1988 2000 2016 2054 1999 1973 2035 1941 1786 1750 1747 1765 1810 1853 1862 2090 2254 2147 2110 1963 1842 1700 1648 1565 1358 1292 1258 1359 1508 1454 1384 1374 1424 1334 1205 1244 1332 1207 1279 1272 1242 1316 1444 1595 1651 1840 513 442 417 243 99 154 70 176 136 207 301 213 228 214 172 143 139 188 186 180 163 123 95
756 791 1043 1221 1294 1447 1536 1606 1529 1518 1489 1606 1776 2058 2072 2062 2021 2039 2029 2022 1985 2003 1998 1904 1894 1869 1720 1749 1708 1639 1631 1905 2063 2153 1976 1854 1769 1754 1605 1469 1325 1369 1484 1563 1474 1423 1444 1418 1408 1433 1400 1211 1237 1334 1178 1285 1280 1337 1454 1658 1819 930 395 352 228 64 76 35 22 35 366 570 331 224 245 214 151 118 105 125 132 97 73 43 40
798 817 788 878 1128 1329 1445 1439 1497 1506 1490 1542 1637 1757 1903 2009 1938 2064 2048 1959 1963 1997 1951 1786 1806 1835 1705 1622 1568 1610 1576 1709 1860 2042 2040 1910 1809 1567 1596 1427 1433 1458 1542 1495 1502 1426 1331 1375 1403 1374 1425 1347 1167 1315 1354 1285 1445 1433 1412 1513 1554 1258 365 367 277 102 106 175 98 49 209 315 329 285 293 198 144 132 114 126 116 88 64 36 25
734 832 825 902 988 1154 1260 1303 1394 1421 1470 1577 1625 1721 1895 1865 1804 2055 2074 2001 1963 1882 1790 1549 1495 1454 1501 1730 1650 1424 1562 1502 1701 1720 1802 1830 1687 1743 1524 1495 1440 1543 1539 1509 1468 1460 1361 1312 1370 1466 1359 1394 1380 1461 1453 1382 1551 1520 1541 1758 1585 284 160 184 222 61 88 105 112 132 449 382 227 252 234 204 200 172 168 143 122 110 82 42 33
598 694 796 946 973 1026 1038 1178 1212 1194 1386 1515 1556 1612 1741 1737 1723 1767 1823 1656 1777 1718 1656 1506 1369 1610 1762 1446 1538 1691 1577 1607 1572 1495 1619 1871 1674 1642 1502 1483 1456 1450 1449 1428 1424 1374 1315 1271 1436 1428 1426 1401 1564 1018 914 1107 1359 1585 1762 1548 1123 574 272 211 160 34 47 48 149 143 237 271 291 286 235 182 168 172 160 106 71 43 41 26 26
605 579 716 781 993 957 944 1111 1128 1309 1436 1476 1478 1634 1589 1590 1627 1580 1626 1658 1653 1818 1642 1669 1519 1401 1468 1530 1494 1370 1429 1291 1369 1440 1518 1634 1675 1609 1476 1398 1458 1417 1364 1406 1448 1389 1327 1205 1433 1430 1535 1514 1468 1163 788 579 566 1153 1737 1051 902 498 267 217 155 60 70 171 196 370 336 317 249 229 245 239 226 124 101 84 98 76 32 11 24
729 710 735 789 966 874 1041 1112 882 772 968 1360 1413 1529 1505 1498 1495 1479 1529 1519 1387 1615 1598 1523 1520 1387 1340 1341 1316 1326 1214 1119 1454 1220 1477 1360 1430 1479 1410 1347 1384 1311 1326 1308 1436 1371 1301 1338 1300 1544 1518 1536 1350 1153 1028 690 609 745 837 861 988 290 276 220 185 187 287 386 289 372 340 362 390 358 322 270 243 227 193 114 160 88 38 12 6
816 766 749 787 863 904 988 705 571 685 842 1230 1356 1349 1394 1535 1523 1504 1507 1560 1577 1560 1311 1297 1436 1261 1061 976 1130 1097 1012 950 960 1031 1135 1150 1153 1116 1095 882 832 1027 1162 1035 1060 1119 938 1114 1240 1404 1377 1329 1253 1069 1273 1728 1712 1167 698 513 427 261 251 262 267 352 380 398 450 451 448 411 392 324 288 245 188 177 164 93 62 50 44 14 9
929 843 681 774 869 874 732 684 637 500 735 1074 1147 1123 1168 1318 1380 1416 1442 1505 1431 1223 1078 976 1087 1074 960 872 905 996 927 838 799 956 1029 995 975 940 872 819 776 870 1012 795 637 787 589 718 866 1217 1286 1236 1156 1102 1564 1353 981 899 591 372 347 380 346 449 468 456 502 603 685 584 484 430 465 460 405 329 248 87 106 128 98 45 16 2 2
1042 914 720 781 813 768 686 694 610 400 740 972 963 951 857 963 1068 1212 1235 1125 1143 917 826 787 895 927 879 854 881 876 831 816 828 897 872 884 918 864 817 761 668 721 622 785 324 526 84 420 411 535 907 1216 1064 1272 1392 1107 892 742 461 323 476 530 497 534 576 637 711 758 850 745 604 504 389 290 253 268 237 212 188 149 104 73 50 28 29
1070 890 724 786 826 867 726 699 557 435 807 797 798 707 677 844 1309 1577 984 1199 909 826 684 643 675 757 770 755 787 875 799 810 825 820 832 831 847 812 714 659 652 574 427 702 95 116 4 86 349 309 661 987 1098 1343 1323 995 863 558 419 322 484 568 555 495 602 763 927 1076 1072 740 522 610 475 276 134 137 125 119 122 114 335 383 264 202 121
903 918 970 828 831 808 711 688 593 442 630 703 824 628 664 955 991 744 786 1230 786 758 710 548 577 672 754 736 711 720 746 767 744 752 828 880 964 756 707 698 655 560 448 600 105 28 2 48 171 263 381 594 1031 1326 1206 903 645 459 573 371 333 509 622 591 582 638 840 1070 966 667 640 694 587 603 476 418 403 272 226 187 286 460 416 345 255
1046 1153 959 1024 708 650 718 704 709 522 522 705 956 647 669 811 729 652 741 891 685 712 646 627 539 645 794 867 817 732 697 737 694 759 846 830 830 774 649 616 547 320 222 280 268 182 0 3 74 245 324 560 1063 1204 984 708 538 308 266 295 218 549 599 702 717 670 796 1005 1001 968 811 731 731 755 488 306 278 205 188 242 376 484 478 469 373
1026 1151 1069 1012 805 1030 987 770 773 614 437 787 904 626 657 689 675 639 626 642 578 611 702 643 556 598 737 1063 973 785 786 872 858 907 856 657 581 614 370 373 285 389 154 185 98 6 1 2 81 242 224 520 841 902 713 508 323 246 327 159 171 454 551 696 714 719 824 929 962 960 1095 1232 1007 790 539 207 106 108 210 291 433 636 711 630 568
883 1169 1098 1134 972 1073 1134 1039 786 633 492 768 868 605 567 635 758 609 613 707 730 632 694 684 572 536 694 1069 1043 932 920 982 931 851 768 552 350 350 287 183 224 260 245 227 726 428 107 121 216 508 549 448 674 627 463 366 226 178 175 99 278 390 525 640 554 609 762 879 984 1111 982 810 825 745 660 620 361 376 462 541 542 776 844 694 780
1126 1112 879 1138 1078 1137 1138 983 803 667 615 758 790 609 609 922 887 831 862 976 863 778 628 574 731 693 696 1013 952 901 866 898 802 821 611 281 283 359 630 571 438 1048 685 830 869 587 1106 784 565 566 573 570 571 366 209 247 219 282 408 307 270 481 493 591 600 474 590 723 714 680 728 796 844 778 888 742 882 727 700 810 857 611 890 623 862
954 1337 1136 1211 1290 1084 1142 1139 933 718 681 820 875 782 840 994 924 889 961 1075 999 883 708 793 949 802 786 912 870 817 765 720 654 586 296 295 349 654 454 526 839 697 700 720 797 1030 1144 747 723 624 1057 680 478 455 222 249 227 142 203 290 269 430 500 652 551 505 601 414 425 600 678 654 608 682 881 937 797 716 681 729 866 782 700 562 596
937 1408 1367 1360 1423 1208 1081 980 882 790 793 854 883 860 947 1020 962 948 910 955 1001 848 856 834 946 887 814 895 797 633 604 598 621 436 469 576 515 386 309 696 988 794 955 1585 1237 898 788 828 736 562 720 496 542 542 284 164 197 175 147 168 347 509 474 583 592 515 384 422 443 486 518 519 592 677 681 711 916 812 750 702 862 798 805 757 595
984 1348 1434 1411 1266 1306 1260 1056 925 955 949 867 750 818 971 1034 1104 957 850 750 733 791 843 845 920 909 910 886 837 661 460 662 836 463 667 712 413 377 608 1186 1172 1033 1330 1428 947 842 748 723 770 610 408 363 248 304 222 167 166 172 186 190 362 566 564 580 515 457 385 466 456 500 518 538 592 630 803 682 670 749 776 719 918 959 935 790 730
1064 1301 1389 1271 1209 1345 1388 1218 1135 1133 1095 948 779 975 979 1006 1032 944 875 756 749 733 802 825 899 944 906 836 756 622 482 828 889 708 874 703 580 704 1063 1156 1144 1332 978 1172 1215 698 484 776 770 508 416 355 414 363 355 227 189 162 197 198 328 564 860 798 689 542 459 402 376 413 497 570 754 821 612 587 642 677 810 820 628 554 596 701 866
1130 1412 1346 1469 1469 1498 1225 1286 1242 1032 1166 1127 1037 1029 925 1030 989 786 708 706 682 688 823 822 891 870 830 775 751 560 626 678 699 636 730 767 600 656 743 691 813 1135 843 811 855 816 501 487 612 570 538 430 480 357 392 219 110 230 244 261 440 712 664 684 720 716 677 596 540 480 483 664 614 524 534 527 527 498 534 424 288 443 658 799 987
1099 1315 1544 1628 1604 1602 1411 1266 1196 1212 1336 1308 1157 1080 1058 1082 995 845 640 582 573 647 813 868 801 823 807 742 675 784 672 598 668 568 747 768 570 480 408 604 568 1083 837 581 666 794 755 518 583 447 355 410 150 250 236 237 280 261 253 376 560 738 782 581 607 645 751 847 861 804 708 533 507 550 642 567 370 292 38 0 0 6 457 890 912
1298 1356 1583 1748 1556 1629 1584 1419 1439 1348 1471 1363 1195 1096 977 965 877 704 537 685 631 613 723 821 852 865 800 731 756 807 615 563 419 350 647 629 468 620 624 447 506 932 823 678 647 636 599 420 519 482 488 305 313 288 185 245 411 440 533 493 414 588 685 540 588 513 466 680 735 855 826 712 666 631 544 514 311 98 39 39 28 19 392 472 580
1147 1276 1486 1668 1758 1538 1782 1633 1690 1633 1519 1374 1178 1058 967 832 777 716 620 600 638 519 664 696 829 844 781 768 753 532 390 302 302 267 511 664 513 492 571 548 692 656 876 864 796 551 416 344 416 564 565 337 327 312 336 392 420 442 440 442 318 277 464 459 420 366 276 97 243 485 592 676 672 735 744 702 602 603 549 41 2 23 117 87 243
1062 1132 1380 1601 1985 1766 1702 1654 1773 1666 1504 1352 1244 1096 938 870 821 720 675 599 559 491 609 654 692 724 756 674 524 306 113 352 290 369 433 470 407 497 488 445 807 947 857 786 716 570 441 360 397 475 671 503 395 390 332 271 311 314 377 329 300 239 284 266 408 323 270 265 139 86 307 520 835 638 602 664 624 715 550 125 51 179 406 202 229
988 1164 1234 1757 2003 1895 1876 1705 1742 1647 1462 1348 1275 1105 1013 833 724 592 619 574 435 402 426 584 691 725 649 630 542 382 227 375 550 422 823 521 501 590 486 666 782 872 695 701 656 570 420 462 534 617 614 499 420 384 357 494 283 244 249 235 212 243 223 216 279 278 466 466 352 269 409 478 638 631 692 508 708 544 322 96 388 439 206 51 268
943 943 1422 1830 2005 1933 1938 1839 1571 1582 1496 1448 1262 1193 984 858 780 619 669 571 527 562 438 427 552 628 639 705 717 594 464 270 637 641 872 1160 1182 870 713 619 735 696 683 640 690 616 441 568 540 727 626 515 466 410 408 666 136 38 74 169 10 113 189 223 323 517 439 455 427 245 302 360 378 614 693 478 488 27 24 38 109 68 33 16 2
832 1028 1611 1932 1990 1744 1856 1713 1649 1398 1560 1335 1152 1225 1173 961 854 689 695 630 604 656 595 519 470 535 522 609 652 682 587 452 590 758 920 1350 1192 899 899 698 596 660 553 500 490 528 427 584 601 601 592 486 475 431 468 639 321 287 18 21 23 18 130 220 303 199 413 355 321 315 274 386 303 448 500 0 0 0 8 43 70 70 18 2 1
1036 993 1671 1799 1941 1789 1744 1615 1533 1461 1397 1254 1397 1294 1121 861 743 727 676 678 604 690 651 581 541 550 556 557 618 610 604 623 581 721 988 1194 1208 996 921 739 739 812 637 634 612 580 435 578 616 541 605 497 411 392 463 558 812 754 746 340 20 26 15 192 273 95 248 368 223 322 280 160 100 186 0 0 0 0 8 37 0 1 0 0 0
1366 1570 1700 1667 1740 1816 1737 1588 1536 1525 1458 1361 1459 1238 1056 956 824 802 727 704 684 684 628 631 660 642 667 707 700 927 859 860 941 1034 1073 1094 1112 1013 914 838 909 1062 722 834 723 543 434 347 521 557 552 646 420 309 427 527 746 589 861 915 396 578 107 248 158 8 84 27 31 146 111 40 123 191 0 0 0 0 0 0 0 0 0 0 0
1820 1889 1403 1706 1714 1778 1796 1598 1669 1592 1435 1422 1420 1300 1164 998 909 944 810 677 622 597 606 671 698 707 766 810 806 931 1032 1034 1012 1083 1138 1117 895 909 997 807 754 898 492 696 637 410 368 377 537 536 473 798 630 437 448 584 653 588 628 736 743 565 62 45 41 74 15 22 30 3 11 0 0 0 0 0 0 0 0 0 0 0 0 0 0
1810 1660 1425 1714 1615 1690 1797 1636 1769 1594 1456 1330 1293 1218 1100 984 910 840 698 542 514 583 642 673 701 736 702 744 769 867 938 1027 1059 1079 1101 1001 885 939 1074 970 736 575 595 742 583 554 467 384 534 375 456 841 707 582 488 620 605 613 759 726 557 337 175 58 59 16 4 8 30 23 0 0 0 0 0 2 13 0 0 0 0 0 0 0 0
1783 1700 1377 1679 1648 1648 1646 1624 1694 1559 1424 1295 1164 1105 980 876 916 866 800 756 729 718 676 669 654 671 587 601 650 863 879 868 956 876 832 751 880 1067 1269 1176 692 700 748 664 556 549 528 487 511 546 503 842 686 628 463 556 611 678 672 655 578 340 204 185 137 112 100 43 10 0 0 0 0 0 0 0 0 0 0 0 0 0 0 0 0
1940 1407 1265 1650 1530 1448 1608 1533 1445 1489 1350 1298 1248 1186 1080 1056 996 894 916 868 802 747 653 650 634 626 593 614 587 655 758 879 1187 1091 1000 902 1030 1218 1215 1068 788 659 540 506 476 598 547 671 556 717 678 711 638 585 642 412 569 674 770 574 498 385 363 346 105 99 56 40 0 0 0 0 0 0 0 0 0 0 0 0 0 0 0 0 0
Wind_Speed
20 24 22 26 29 30 32 33 34 34 34 34 35 36 38 39 38 39 40 40 39 40 41 41 40 38 37 36 34 32 30 29 28 28 27 26 26 26 25 24 22 20 19 18 17 nan nan 15 16 17 18 19 19 19 16 15 13 13 15 16 16 14 16 17 19 19 20 21 20 19 17 16 17 15 13 13 12 12 13 11 8 2 1 4 10
24 23 22 24 30 30 32 33 34 34 34 34 35 37 38 39 38 39 39 40 39 40 41 41 39 38 37 35 34 31 30 29 28 28 27 26 26 26 25 25 23 21 20 17 16 16 15 15 15 16 17 17 17 16 14 13 13 15 14 16 16 16 16 16 17 18 19 19 18 18 18 17 16 15 13 13 13 13 11 10 8 2 2 9 10
30 27 23 24 29 31 31 32 33 33 33 34 36 37 38 38 38 38 40 40 40 40 40 40 38 37 36 35 33 31 29 29 29 28 28 27 26 27 26 25 23 21 19 18 17 16 16 16 16 15 15 16 15 14 14 13 13 13 14 15 16 16 16 16 15 16 17 16 16 16 16 17 16 14 14 15 14 14 13 13 12 7 4 11 11
33 25 23 25 29 31 31 32 32 33 33 33 35 37 37 38 37 38 39 39 40 40 39 39 38 37 36 35 33 31 29 29 28 28 28 28 27 26 26 24 23 21 19 18 17 17 16 16 15 15 15 15 13 13 13 14 14 14 12 12 12 13 14 14 14 15 15 15 14 9 4 5 9 14 14 13 13 13 13 13 12 12 12 12 14
33 26 23 23 24 28 31 32 32 32 33 33 35 36 37 37 37 38 40 39 40 39 39 39 38 36 35 34 33 31 29 28 28 28 28 27 26 27 25 23 22 20 18 18 18 18 18 17 15 15 14 11 11 12 14 13 13 12 11 10 10 9 8 6 11 12 14 13 11 5 3 5 6 13 12 13 12 11 11 12 12 12 12 13 14
30 28 25 23 23 26 32 31 32 33 33 34 35 35 36 37 38 38 39 40 39 38 38 38 37 36 35 34 33 31 29 28 28 28 28 25 25 26 24 23 21 19 17 17 17 18 19 18 15 14 12 10 10 11 11 11 11 9 7 8 8 6 8 4 3 5 5 9 7 3 4 6 5 7 14 13 12 11 12 12 11 10 12 14 14
31 27 26 23 23 25 31 31 32 32 33 34 35 35 35 37 38 39 39 40 39 38 38 38 36 35 34 33 32 30 29 28 28 28 27 25 25 25 24 23 21 18 16 17 18 18 18 17 15 13 11 9 10 10 9 8 7 5 4 4 4 4 2 2 4 5 2 3 4 nan 4 6 5 5 13 12 11 12 12 11 12 11 12 13 13
29 27 26 24 22 26 30 31 32 33 33 34 35 35 35 37 38 39 40 40 39 37 37 37 35 34 33 33 31 30 29 28 28 28 27 23 25 24 22 22 19 17 15 16 17 18 17 15 13 13 11 9 10 9 8 6 5 3 2 1 2 2 1 2 4 5 6 4 3 nan nan 8 8 7 12 13 12 11 12 13 14 13 13 14 13
30 29 27 26 24 30 30 31 32 33 34 34 35 36 36 37 38 39 40 40 39 37 36 36 35 33 32 31 30 29 29 29 28 27 26 26 25 22 19 19 18 16 14 15 16 16 16 15 13 12 10 9 11 9 6 4 2 1 1 1 1 1 3 3 6 9 nan nan nan nan nan nan nan 6 11 13 12 13 15 13 13 15 16 15 14
32 30 29 26 26 31 32 32 33 34 33 34 35 36 37 39 38 39 40 40 39 37 36 35 35 33 31 30 29 28 28 29 29 27 26 25 24 23 20 19 18 15 14 15 17 17 16 15 14 12 9 8 9 8 5 2 2 2 2 1 2 1 7 8 7 7 nan nan nan nan 9 9 6 6 10 11 nan 16 15 15 12 12 12 16 16
35 32 30 28 29 32 33 33 33 34 34 34 36 36 38 39 39 39 40 39 39 38 37 36 34 32 31 30 29 28 28 28 28 27 26 25 25 23 21 19 18 14 14 15 17 17 16 16 15 12 9 8 9 7 5 3 2 2 0 2 5 7 8 8 6 nan nan nan nan 9 11 14 nan 5 10 13 16 16 16 17 16 15 nan 16 16
35 33 31 29 33 33 33 33 33 34 34 35 36 37 38 39 40 38 39 38 37 37 36 34 32 31 30 29 28 28 28 27 27 27 26 25 25 24 22 21 18 15 13 18 19 17 16 15 14 11 8 8 8 7 5 4 2 1 2 3 4 4 6 7 3 nan nan nan nan nan nan 6 4 7 13 15 14 15 15 nan 18 18 18 nan nan
36 34 32 30 29 32 32 33 33 33 34 35 36 37 38 39 39 38 37 37 36 36 36 33 31 29 28 28 27 27 27 27 26 25 24 25 26 24 23 22 19 16 18 19 18 16 15 15 13 11 10 9 9 7 5 3 2 2 0 2 2 3 5 6 nan nan nan nan nan nan nan nan nan nan 12 14 14 14 15 17 17 17 16 nan nan
35 34 33 32 29 35 33 33 32 33 34 34 36 37 38 38 37 37 36 36 35 35 34 32 31 29 28 26 25 25 25 26 25 23 25 26 25 24 24 24 22 19 19 19 17 16 16 15 13 10 10 10 9 8 5 3 1 2 4 4 5 5 0 5 12 nan nan nan nan nan nan nan 8 12 13 13 14 14 16 nan nan nan nan nan nan
36 35 33 32 30 30 37 33 33 33 34 35 35 36 36 35 35 35 35 35 34 34 33 32 31 29 27 25 24 26 28 28 26 24 26 27 26 26 25 25 24 21 19 17 16 16 16 14 13 10 10 10 9 7 5 2 2 4 5 5 4 3 1 7 10 nan nan nan nan nan 7 8 12 13 14 13 nan nan nan nan nan 16 16 17 18
38 36 34 31 29 28 29 34 35 34 34 35 35 35 34 34 34 34 34 33 32 33 32 32 31 29 27 25 23 26 28 28 27 26 28 28 27 26 25 26 24 21 19 17 16 15 15 14 13 11 10 10 8 7 5 4 5 4 3 3 3 3 6 13 nan nan nan nan nan nan nan 7 14 14 13 14 nan nan nan 15 15 nan nan nan nan
36 36 35 31 29 27 28 29 32 37 35 35 34 33 33 33 33 33 32 31 31 31 31 31 30 28 26 25 23 25 28 29 28 29 30 29 28 27 26 25 23 21 19 17 16 16 15 14 13 12 10 9 8 7 6 3 2 1 2 2 1 3 20 16 12 nan nan nan nan nan nan nan 13 14 nan nan 15 nan 15 14 13 14 14 15 16
35 34 34 31 29 28 29 29 31 30 30 32 33 32 32 32 31 30 30 29 29 29 30 30 29 27 26 24 22 24 26 29 30 30 31 29 29 28 27 25 23 21 19 17 16 16 16 14 14 12 9 9 9 8 5 3 1 1 1 2 1 11 20 19 13 11 nan 12 nan 9 8 13 15 16 17 15 16 15 14 13 13 13 14 15 nan
34 34 34 32 30 31 31 30 30 29 29 27 26 29 31 30 30 29 28 28 28 28 28 29 29 27 25 23 21 24 25 29 31 31 31 31 30 28 28 26 23 21 19 18 17 17 16 14 12 11 10 9 8 8 7 4 2 2 2 4 8 16 22 15 13 nan nan nan nan nan 8 14 16 17 16 16 17 16 15 14 13 nan nan nan nan
32 33 32 31 31 32 31 30 30 29 27 26 27 26 29 29 28 28 26 26 27 26 26 27 28 27 25 23 21 21 23 25 31 29 31 32 30 25 28 26 23 21 19 19 18 18 17 15 12 9 9 10 8 7 6 5 4 3 4 5 7 9 11 11 14 13 11 10 nan nan 14 16 17 18 18 17 17 16 15 14 14 nan nan nan nan
28 30 31 31 32 33 32 30 30 29 28 27 26 25 27 29 26 27 26 26 25 24 25 26 26 24 23 21 20 19 19 21 24 23 29 26 29 29 29 27 23 20 20 20 19 18 18 16 13 8 7 8 8 7 6 4 4 4 2 4 8 8 11 12 13 nan nan 11 10 10 15 16 17 18 18 18 18 17 16 16 15 14 nan nan nan
29 29 31 33 33 33 33 32 32 31 29 27 25 25 25 26 23 22 22 22 22 21 21 20 20 18 20 19 18 20 21 22 23 26 24 26 28 30 29 27 23 19 20 20 19 19 18 17 15 10 6 6 6 8 7 4 3 3 3 5 8 7 10 12 12 nan nan nan 10 12 17 16 17 18 18 18 18 18 18 17 nan nan nan nan nan
30 32 33 35 33 33 34 36 36 33 31 25 25 27 26 24 23 22 22 21 19 19 19 20 19 18 18 19 21 22 22 23 24 25 26 28 29 31 30 28 24 20 20 19 19 19 18 17 16 12 6 5 8 7 8 7 6 4 6 7 6 8 11 14 13 nan nan 9 8 15 16 17 17 17 18 18 18 17 17 nan nan nan nan nan nan
34 36 36 33 33 35 37 38 37 30 25 23 24 25 23 22 22 22 22 20 18 18 17 19 19 19 22 23 23 23 24 25 27 31 30 27 29 31 31 29 25 21 19 16 18 19 19 17 16 13 7 7 9 7 7 8 8 8 9 8 5 10 12 13 12 11 10 10 10 17 16 17 18 18 17 17 18 17 17 17 17 nan nan nan nan
34 36 34 32 33 35 37 35 34 31 26 23 25 22 21 20 20 22 22 19 18 19 19 19 20 22 24 24 23 23 24 25 26 27 27 28 29 28 25 22 20 17 16 14 14 15 17 16 13 12 7 6 8 7 9 11 11 11 12 8 5 7 13 14 12 10 11 10 10 16 17 17 17 18 18 17 17 16 16 nan nan nan nan nan nan
33 35 34 33 32 33 35 33 32 29 27 27 25 25 25 21 19 21 20 19 20 22 21 21 23 23 24 24 24 24 24 25 26 27 28 29 28 26 23 21 18 15 13 14 13 15 16 15 12 10 6 6 7 8 11 12 12 14 12 9 9 7 13 14 11 11 11 10 10 16 16 17 17 18 19 18 18 nan 15 15 nan nan nan nan nan
30 36 34 29 28 30 32 32 31 28 25 20 23 28 26 21 21 22 20 19 20 22 22 22 22 23 24 25 24 22 23 24 26 26 27 26 23 20 20 18 17 15 13 14 13 15 nan 15 12 9 7 8 6 10 13 13 12 15 12 10 12 10 13 13 11 11 10 9 10 16 16 17 18 18 18 19 19 18 17 16 17 nan nan nan nan
33 33 28 27 25 28 30 33 31 33 29 23 21 27 27 26 27 28 23 20 21 21 21 22 23 24 24 24 23 21 21 23 23 23 22 21 19 17 19 19 16 15 14 14 nan 15 nan nan 12 9 8 8 9 12 13 14 13 14 14 11 11 10 13 14 12 12 10 8 7 13 15 16 18 17 18 19 18 17 18 19 20 19 19 20 20
29 26 29 31 27 29 32 34 32 33 32 28 26 23 27 27 27 28 24 21 21 21 22 23 23 23 22 23 22 21 20 21 20 19 19 19 19 19 20 18 15 14 15 13 14 nan nan nan 10 9 7 9 12 13 14 15 16 13 14 16 15 10 12 13 12 13 11 8 6 11 15 15 16 17 18 18 19 18 18 20 20 20 19 19 19
18 24 28 29 30 31 33 32 32 32 31 29 26 23 24 26 25 25 23 21 21 22 22 22 22 22 21 20 20 21 21 20 20 19 20 20 19 20 20 18 16 13 14 12 12 12 nan nan nan 8 7 10 13 14 16 16 16 12 15 17 14 10 10 11 15 14 11 8 5 6 14 15 15 15 17 18 19 17 19 19 17 17 18 16 17
16 23 26 28 29 31 32 30 29 31 30 29 26 23 21 23 23 22 22 20 21 22 22 20 20 20 19 19 20 20 20 21 21 20 20 20 18 18 18 18 17 14 10 11 nan nan nan nan nan 7 7 11 13 16 17 16 13 12 15 18 15 10 10 10 16 15 11 8 6 5 7 9 13 14 15 16 17 18 17 16 16 15 15 14 13
12 23 25 27 29 31 33 30 29 31 32 28 25 24 23 22 21 20 20 20 21 22 22 20 19 19 19 19 20 20 21 22 22 21 21 19 16 17 19 19 16 13 11 12 14 11 10 10 9 10 12 17 17 17 17 15 12 12 16 nan 15 13 11 9 16 15 10 7 6 6 8 9 13 14 13 14 15 14 14 14 13 13 11 10 10
15 23 27 28 30 32 32 29 28 31 31 29 26 23 22 23 21 19 19 21 20 22 22 21 18 18 18 18 18 19 20 21 21 20 21 20 19 19 19 19 14 12 15 15 15 13 14 14 14 12 15 18 17 18 20 16 12 13 15 16 16 13 10 12 14 14 10 8 8 9 8 7 7 11 12 12 11 11 11 11 10 10 9 8 7
19 20 24 27 27 29 29 27 26 31 31 28 25 24 23 23 22 20 19 19 19 20 21 21 19 16 15 17 19 19 19 20 21 22 23 22 20 19 22 21 17 13 15 15 15 15 16 17 15 16 18 18 17 18 18 16 12 12 15 15 15 13 12 9 11 11 12 11 9 8 9 9 8 8 8 11 11 10 10 9 8 8 8 7 5
12 14 20 24 26 28 27 25 26 29 31 28 25 24 23 23 22 20 20 19 19 19 19 19 17 15 16 18 20 21 21 21 22 24 24 23 21 20 19 19 13 14 16 15 14 16 17 17 16 18 18 15 14 14 16 15 13 14 14 14 15 13 12 11 8 12 15 12 11 9 9 9 9 8 8 7 9 10 9 8 9 9 8 7 6
9 10 15 20 24 26 26 26 24 27 27 26 23 22 22 21 21 22 22 19 17 17 17 16 15 14 16 18 19 20 21 22 24 26 24 20 16 14 15 16 14 15 16 16 15 16 14 14 15 16 18 15 14 15 15 15 14 15 12 12 15 12 12 12 12 15 14 13 12 10 9 8 9 8 7 6 6 6 8 8 8 8 9 9 8
9 6 12 16 22 24 25 25 23 24 26 24 22 20 20 20 20 21 21 18 16 15 14 15 15 15 15 17 18 19 18 19 20 19 18 15 12 10 10 10 11 14 16 18 18 15 12 11 15 18 13 10 13 15 15 15 14 14 12 10 11 10 12 13 14 15 13 12 11 10 9 7 7 9 6 5 5 4 6 7 6 6 7 7 7
9 6 6 14 21 23 24 24 22 21 23 23 21 20 17 18 19 17 17 17 15 14 15 15 15 15 15 16 19 18 16 13 10 9 11 9 10 9 9 14 11 12 12 17 19 15 10 13 16 14 10 11 13 14 15 14 15 14 13 8 10 11 13 14 13 13 12 11 10 8 7 6 6 5 5 4 4 4 4 5 7 6 7 7 8
21 5 7 15 20 24 24 24 22 21 20 22 22 21 18 15 15 16 15 14 14 13 15 14 12 12 13 15 17 16 13 11 7 5 7 9 11 10 10 9 8 8 10 12 16 15 13 15 14 11 9 9 13 13 15 14 16 15 13 9 12 12 13 13 12 12 10 9 10 8 7 5 4 3 3 4 4 3 nan nan nan nan 6 8 8
28 18 10 16 22 23 22 22 20 19 20 20 20 20 18 14 13 14 14 14 13 13 13 12 11 10 11 13 14 12 10 10 9 6 7 8 10 9 10 11 8 5 10 11 12 12 13 13 10 10 11 13 15 15 14 16 16 16 14 14 14 13 12 10 9 9 8 8 9 8 8 6 4 3 3 3 3 nan nan nan nan nan 5 8 12
29 21 15 15 22 23 22 20 17 18 20 19 19 20 19 15 12 11 11 12 14 14 13 12 10 10 11 11 12 11 10 10 10 8 7 7 8 9 8 10 8 6 10 10 10 12 11 11 12 9 14 15 15 15 13 16 17 15 15 14 14 11 8 8 8 8 8 nan 9 9 7 7 4 4 3 3 3 3 4 nan nan nan 6 nan 8
27 25 19 12 19 24 22 18 16 17 19 19 19 19 19 19 17 17 14 12 14 14 13 12 11 13 13 11 11 11 11 10 10 8 8 7 6 7 8 11 6 8 11 11 12 12 11 11 12 12 13 15 15 14 14 16 12 13 13 12 13 10 8 8 7 7 9 9 9 nan 7 7 4 2 3 3 4 4 5 5 nan 4 5 8 8
28 28 17 10 15 23 24 22 18 16 16 18 19 19 18 18 16 16 16 13 12 14 14 13 13 14 14 12 10 11 11 9 9 8 7 4 5 6 7 9 6 9 11 10 12 12 10 10 12 14 16 13 15 13 11 11 13 12 13 14 9 10 7 7 7 8 8 7 5 5 5 6 6 5 4 4 4 4 5 nan 6 7 8 nan 9
31 28 17 15 14 18 26 26 22 19 16 15 17 18 21 19 16 15 15 13 12 15 17 15 15 15 15 13 10 11 11 8 8 8 5 5 6 6 7 6 6 9 9 11 11 12 11 11 13 16 14 14 13 10 7 10 12 nan nan 9 nan 10 9 2 5 7 7 6 5 4 5 4 5 6 4 4 4 nan nan nan 8 nan nan nan nan
35 32 24 21 12 16 24 25 22 18 17 16 14 17 22 22 19 17 14 13 12 15 17 16 15 14 13 11 9 9 10 10 9 7 6 7 7 7 7 6 8 9 9 12 12 11 12 11 12 15 11 12 13 11 6 9 10 9 nan nan nan nan 4 6 6 7 5 5 5 4 5 5 4 4 4 nan nan nan nan nan nan nan nan nan nan
34 31 30 23 15 18 26 24 25 20 20 20 16 17 21 24 24 22 19 16 16 16 17 16 15 14 11 9 9 8 9 10 9 7 9 9 8 8 9 10 10 9 10 13 14 13 11 11 10 11 9 8 12 10 8 9 9 9 9 8 nan nan nan 8 9 nan 5 5 5 5 5 5 nan 4 nan nan nan nan nan nan nan nan nan nan nan
29 31 30 23 22 26 25 29 32 30 30 26 21 18 19 22 24 23 21 19 18 14 14 13 13 11 10 9 8 8 9 10 10 10 11 10 9 9 10 12 11 12 13 14 14 13 10 10 8 8 8 10 10 9 9 9 10 9 9 8 9 9 12 12 7 nan nan nan nan 7 7 nan 3 5 nan nan nan nan nan nan nan nan nan nan nan
29 33 27 22 25 29 30 27 31 36 32 28 23 18 18 21 22 21 20 19 17 17 16 15 12 11 11 10 10 10 10 11 10 9 10 10 9 9 10 11 15 16 9 11 13 14 11 10 8 10 11 9 8 8 9 9 10 8 10 9 10 13 nan nan nan nan nan nan nan nan nan nan nan nan nan nan nan nan nan nan nan nan nan nan nan
30 30 27 25 25 28 32 28 22 35 32 30 24 17 17 20 21 21 20 17 17 16 16 15 14 12 13 11 11 10 10 10 9 9 9 8 8 8 9 10 19 12 7 10 12 17 12 8 10 12 8 7 8 8 10 9 11 10 12 11 13 15 14 nan nan nan nan nan nan nan nan nan nan nan nan nan nan nan nan nan nan nan nan nan nan
27 28 27 27 27 28 31 31 22 25 31 29 25 20 19 19 20 21 21 18 17 16 16 15 14 14 13 11 10 10 9 8 8 8 8 7 7 9 10 14 20 12 11 13 14 17 11 7 10 12 10 9 10 11 10 11 12 12 11 10 13 16 17 15 13 14 14 nan nan nan nan nan nan nan nan nan nan nan nan nan nan nan nan nan nan
24 27 26 25 27 29 30 31 27 23 27 27 24 21 20 18 19 21 20 20 19 18 17 15 15 14 13 9 8 8 9 8 10 9 8 8 9 10 11 17 20 15 17 16 14 15 11 8 11 13 13 11 12 12 13 13 13 13 11 11 13 15 13 12 12 nan nan nan nan nan nan nan nan nan nan nan nan nan nan nan nan nan nan nan nan
Wind_Direction
293 302 304 306 305 302 300 296 294 294 293 293 293 294 295 297 298 298 299 299 300 302 303 304 303 302 303 305 304 303 302 302 303 304 307 308 306 302 303 304 300 299 299 300 303 nan nan 294 288 284 285 286 288 294 296 300 301 301 296 294 292 282 285 283 275 274 271 270 267 266 268 267 270 270 269 266 265 266 264 267 275 274 69 269 262
302 298 298 304 305 301 299 296 294 294 293 293 293 294 296 297 298 299 298 299 301 303 304 304 303 303 304 305 304 304 303 302 303 303 305 305 303 303 304 301 302 302 301 301 300 300 302 296 286 287 287 285 286 293 299 302 305 305 302 297 295 294 287 285 280 275 270 266 263 261 262 261 261 262 260 259 261 265 265 268 273 343 39 270 261
292 295 298 302 302 300 297 295 294 293 293 293 294 295 296 297 298 298 298 299 302 304 304 303 303 303 305 305 304 303 303 303 302 303 304 306 305 306 306 302 303 301 301 301 301 302 303 299 289 289 289 290 288 294 302 305 312 310 309 302 299 299 295 291 289 283 277 268 260 254 252 253 254 254 255 255 257 256 257 260 264 272 280 259 255
294 294 295 301 301 298 296 295 294 294 293 292 293 295 296 296 297 298 298 300 303 304 303 303 303 304 305 305 304 303 302 302 302 302 302 304 308 306 302 305 303 302 301 300 300 300 299 296 294 294 296 291 287 293 303 310 315 323 322 318 313 303 305 302 300 293 284 274 265 252 221 223 231 241 246 247 250 253 254 257 262 262 257 253 250
292 292 291 294 295 295 296 295 295 294 293 293 294 295 295 295 296 297 299 300 303 303 302 302 303 304 305 305 303 301 301 301 301 302 302 304 308 307 304 307 306 302 300 298 301 303 300 297 295 293 289 289 293 291 303 314 322 327 325 322 317 309 312 309 302 299 287 269 257 236 228 229 226 239 243 244 243 245 254 258 262 265 262 257 252
291 292 290 291 292 293 296 296 296 295 294 294 294 294 293 294 296 298 299 301 302 302 302 302 303 304 304 304 302 301 300 299 300 301 304 308 309 307 308 306 304 307 302 301 300 301 301 300 296 293 292 296 298 296 305 320 329 331 331 330 331 319 302 302 343 311 287 213 227 222 209 225 214 222 243 242 240 239 248 255 256 256 260 256 254
290 289 290 290 289 292 296 296 297 296 295 295 294 293 292 295 297 299 300 301 301 301 301 302 302 303 303 302 300 299 298 298 299 302 307 309 307 306 309 308 309 309 305 300 295 295 297 299 295 288 288 301 303 305 319 327 335 343 350 340 317 313 306 305 38 52 77 207 242 nan 203 216 209 206 238 236 237 241 240 241 246 246 248 252 252
287 288 288 289 288 294 297 297 297 295 294 293 292 291 293 294 297 299 300 300 299 299 300 300 301 301 301 300 297 296 296 297 299 303 306 305 305 309 312 310 310 309 306 303 294 287 289 289 288 284 287 296 302 309 325 331 351 358 347 332 279 262 223 118 123 108 19 9 270 nan nan 219 207 198 234 235 228 232 236 237 233 236 243 246 246
289 287 285 288 291 298 296 296 296 294 293 292 291 293 293 295 296 297 298 298 298 297 297 298 299 299 299 297 294 293 294 297 300 302 303 301 304 309 309 309 306 305 304 295 292 289 286 289 285 286 289 295 301 313 328 335 316 328 340 317 285 234 33 358 213 270 nan nan nan nan nan nan nan 206 231 235 236 235 231 225 228 240 243 245 246
288 286 288 290 293 297 297 296 295 294 294 293 293 293 294 296 295 296 297 297 297 297 296 296 298 298 296 294 293 291 290 296 299 302 303 305 307 306 305 306 311 312 305 296 288 286 289 287 283 289 289 295 303 313 334 303 292 322 358 350 20 358 217 212 234 267 nan nan nan nan 236 232 211 214 236 238 nan 236 238 246 243 241 242 247 249
288 288 289 292 296 297 297 296 296 295 294 294 295 294 295 295 294 295 296 295 296 297 296 296 297 295 294 292 292 291 290 294 299 302 305 308 306 307 306 303 302 300 294 292 286 285 289 281 281 286 288 293 303 309 312 287 273 297 61 147 196 197 188 194 215 nan nan nan nan 245 246 245 nan 187 237 238 237 237 238 239 242 243 nan 250 250
289 289 290 291 298 295 296 295 295 295 295 296 295 295 295 294 294 295 296 296 296 296 295 296 295 293 292 292 291 291 292 294 297 301 306 308 306 304 297 295 298 295 293 284 285 286 283 283 280 285 288 293 293 297 300 279 260 212 188 194 163 171 161 168 260 nan nan nan nan nan nan 229 213 239 243 243 243 244 245 nan 242 244 247 nan nan
288 289 290 290 291 295 294 294 294 295 295 295 295 295 295 295 295 296 296 295 295 294 294 294 291 289 289 290 290 291 293 294 297 302 305 305 303 302 299 298 297 297 292 285 283 286 286 285 280 277 282 284 284 290 286 248 232 211 159 65 79 120 152 196 nan nan nan nan nan nan nan nan nan nan 249 244 244 246 245 242 247 248 248 nan nan
288 288 290 290 293 299 294 293 292 294 294 293 294 294 294 294 295 295 295 295 294 293 293 291 288 287 287 289 288 286 287 290 295 300 306 302 301 301 300 296 298 293 284 281 285 287 286 284 282 274 273 275 282 285 267 230 234 21 28 31 50 45 270 308 293 nan nan nan nan nan nan nan 230 247 250 254 255 251 247 nan nan nan nan nan nan
289 289 290 291 293 295 297 291 291 291 290 291 291 292 292 294 294 295 294 294 293 292 292 290 287 286 287 287 284 285 285 286 292 297 302 300 295 296 298 297 293 286 282 283 283 282 282 286 290 282 272 280 280 291 290 293 15 12 21 29 47 48 359 328 304 nan nan nan nan nan 237 238 259 250 248 254 nan nan nan nan nan 254 254 255 254
291 291 290 289 290 291 291 294 290 288 288 288 288 289 291 292 293 293 293 293 293 292 291 287 285 285 287 286 285 287 288 290 294 296 295 294 296 299 300 294 291 286 282 279 277 280 282 286 287 286 280 277 291 302 317 350 13 13 3 26 55 79 302 302 nan nan nan nan nan nan nan 249 250 257 259 256 nan nan nan 254 256 nan nan nan nan
289 291 291 290 287 283 283 283 286 287 284 284 285 286 287 289 289 290 292 293 293 292 289 287 285 286 288 287 286 290 291 291 293 296 296 298 298 300 296 293 289 285 279 278 280 280 279 287 289 287 291 289 293 306 336 13 25 10 27 30 59 228 290 295 296 nan nan nan nan nan nan nan 274 264 nan nan 257 nan 250 254 260 263 262 261 260
288 289 289 288 284 280 278 277 280 280 281 281 282 283 285 286 288 289 291 293 293 292 288 286 285 285 287 288 288 291 295 295 294 298 299 301 302 299 296 293 289 284 282 279 279 280 280 285 288 290 294 298 299 304 311 292 324 27 345 302 269 274 285 285 289 284 nan 280 nan 280 271 271 267 265 264 261 256 260 258 255 259 260 259 260 nan
283 285 285 285 283 280 278 277 277 277 277 276 277 282 285 287 287 290 292 294 293 291 290 287 286 284 288 289 292 296 298 297 297 298 300 301 300 299 296 293 289 284 283 279 277 282 283 286 290 292 296 299 301 296 280 284 290 256 248 253 246 277 284 285 285 nan nan nan nan nan 283 280 276 275 274 267 264 258 257 260 257 nan nan nan nan
280 281 280 280 279 277 276 277 277 276 275 277 279 281 287 286 288 290 292 292 291 289 293 294 293 291 291 295 299 295 294 294 298 297 299 299 296 295 295 292 289 287 283 278 277 284 285 284 288 296 299 302 304 295 284 284 291 273 243 248 252 265 292 289 285 283 282 276 nan nan 282 283 275 273 272 272 272 269 267 263 259 nan nan nan nan
275 277 278 276 276 276 277 276 276 276 277 280 280 281 286 288 287 291 290 289 290 294 297 302 298 297 295 294 290 281 281 284 288 290 298 294 296 296 294 292 290 286 282 278 281 284 285 285 287 288 296 296 298 296 281 275 276 281 285 297 270 282 292 289 287 nan nan 278 276 274 270 274 283 284 281 275 270 268 266 265 266 268 nan nan nan
277 275 275 276 275 276 278 277 276 275 276 279 281 282 285 286 283 285 283 286 291 295 293 289 289 280 290 284 273 274 273 276 281 289 287 291 292 295 295 292 289 286 281 282 285 287 285 286 288 294 295 285 299 302 301 309 321 302 288 283 299 289 292 288 283 nan nan nan 288 288 285 284 283 280 280 282 280 277 272 273 nan nan nan nan nan
274 273 273 276 277 281 282 280 280 279 283 285 287 286 285 285 286 285 284 287 290 285 280 282 275 277 272 267 263 264 267 268 276 283 284 288 289 292 292 292 288 284 282 284 288 287 282 284 291 296 290 281 291 303 308 306 298 269 255 283 305 292 292 284 280 nan nan 292 292 291 289 284 282 283 283 281 281 283 283 nan nan nan nan nan nan
276 277 279 282 289 287 286 281 281 284 291 288 285 284 281 282 283 282 283 286 285 282 278 277 278 276 270 265 264 265 264 268 282 290 287 283 287 290 292 292 288 282 283 279 283 285 283 282 289 289 286 274 291 299 295 289 283 274 275 271 277 286 285 285 289 290 287 284 281 285 284 285 284 284 283 283 283 279 278 279 276 nan nan nan nan
274 277 282 289 285 283 281 288 297 302 295 282 285 283 284 284 282 281 282 285 286 280 274 274 276 278 276 271 269 267 267 271 270 273 276 281 279 278 277 273 270 270 277 264 270 274 274 278 279 284 280 281 290 285 270 266 272 263 261 242 255 280 274 281 294 290 278 276 280 284 284 285 285 283 282 282 280 277 277 nan nan nan nan nan nan
274 277 269 263 269 278 287 290 296 306 301 298 300 299 297 293 287 284 281 281 277 277 276 277 282 283 279 277 273 273 272 274 277 278 278 278 278 276 273 270 268 269 266 268 275 276 279 286 291 296 299 290 289 274 270 270 266 263 267 237 207 227 258 270 287 283 274 275 284 288 287 287 286 283 282 280 280 nan 279 275 nan nan nan nan nan
266 263 262 270 274 278 284 290 295 297 293 284 297 301 299 296 295 291 282 278 278 277 277 279 282 285 285 283 281 278 278 281 282 281 278 274 273 273 270 264 263 266 267 268 271 274 nan 287 290 298 305 302 295 278 269 271 263 265 267 240 203 229 256 264 281 279 272 279 292 298 295 290 288 287 286 284 282 282 282 281 279 nan nan nan nan
260 266 276 279 281 290 294 298 302 300 300 298 298 303 301 295 296 293 289 291 281 277 279 282 284 287 287 286 284 282 284 285 283 280 277 270 269 268 261 258 259 261 263 259 nan 266 nan nan 282 294 299 295 286 271 271 267 264 262 263 251 228 230 249 265 283 286 280 282 291 302 299 296 294 290 285 281 279 278 279 282 276 274 273 271 274
267 276 278 284 295 302 305 305 303 302 307 311 312 312 305 297 294 293 293 291 283 279 279 281 284 285 287 288 286 283 281 282 280 277 268 266 261 258 248 248 252 258 259 261 259 nan nan nan 266 279 279 274 276 274 273 262 254 252 254 251 237 225 249 258 283 298 290 288 295 305 306 300 297 295 291 288 286 287 288 280 280 279 275 273 277
261 284 288 292 299 303 304 305 307 311 312 313 314 315 308 300 300 293 290 288 284 283 281 282 283 285 286 287 283 281 283 280 275 267 265 263 258 250 245 239 236 240 261 269 268 266 nan nan nan 257 267 276 278 275 271 256 245 247 253 265 267 242 247 245 271 292 294 287 299 301 304 300 295 292 291 290 288 286 283 282 280 280 280 280 275
270 292 295 298 300 300 300 302 309 311 310 311 310 310 297 295 293 288 288 290 287 283 282 285 284 285 287 285 281 277 274 270 268 264 264 264 260 248 238 231 225 228 257 270 nan nan nan nan nan 274 284 280 267 263 259 245 240 244 256 267 278 289 269 237 251 275 291 295 299 296 295 292 289 286 285 288 290 288 284 278 278 277 280 287 291
299 309 299 298 297 297 299 304 312 309 309 307 304 303 299 292 287 288 286 287 286 280 281 285 289 290 291 286 281 275 269 265 267 263 264 264 258 244 230 222 213 219 248 250 258 269 267 261 253 250 262 268 257 250 249 243 242 251 259 nan 268 262 267 243 262 272 289 309 311 297 292 291 292 293 296 296 296 292 286 281 274 269 267 276 285
291 303 304 302 299 297 298 306 310 306 306 307 304 301 293 284 284 282 279 281 283 278 279 285 291 295 295 289 284 277 269 267 266 265 263 261 254 245 230 218 207 223 236 238 241 243 247 242 246 253 247 251 248 230 222 222 229 246 260 272 274 266 261 273 273 283 313 324 320 314 298 290 289 295 294 290 280 277 272 272 269 266 261 268 273
289 298 302 298 294 291 294 305 311 303 303 303 303 299 294 288 282 279 281 281 278 276 275 279 287 296 295 289 286 281 271 265 264 261 260 260 256 247 235 220 215 225 233 236 235 232 232 236 248 254 249 241 239 240 239 240 225 234 254 262 267 270 266 277 280 291 310 321 318 309 296 284 280 274 276 285 288 282 274 267 260 249 246 247 261
278 292 300 298 294 293 297 301 307 298 300 303 304 299 294 289 287 285 284 281 279 277 277 281 285 292 292 286 286 283 273 266 265 262 257 256 257 251 237 223 226 234 234 234 242 240 237 231 239 251 245 240 245 249 259 256 251 251 254 263 268 266 269 280 287 296 299 302 295 293 290 288 281 271 268 272 285 282 276 267 249 245 236 234 236
252 283 288 294 294 295 298 300 302 295 295 300 298 294 293 293 289 286 283 285 286 285 285 290 288 286 289 288 288 289 277 266 269 266 254 250 252 248 229 222 228 236 240 231 238 248 238 221 222 234 235 221 233 244 255 259 253 251 249 262 268 268 278 296 295 285 289 291 289 283 283 283 282 285 280 269 262 270 275 262 247 233 219 214 220
218 254 292 295 294 296 299 302 304 296 293 294 291 288 288 289 285 280 284 290 289 286 283 288 285 283 286 286 288 295 290 274 268 263 239 233 224 213 205 206 227 245 245 235 234 249 246 227 225 241 256 247 242 249 253 256 255 252 250 252 270 267 273 282 281 282 284 286 289 281 276 275 277 283 269 266 256 246 270 265 242 220 203 193 190
247 172 281 296 299 298 299 301 301 296 294 296 294 286 286 282 281 279 279 285 288 286 283 288 289 283 283 287 288 291 296 284 267 241 221 223 225 217 202 187 199 253 251 239 235 241 246 236 234 244 260 250 247 261 262 261 258 255 250 253 258 261 271 276 274 274 277 281 280 275 276 264 251 256 269 270 271 260 227 228 238 225 210 199 199
274 236 266 285 288 289 293 298 299 300 296 296 293 281 275 273 280 283 281 282 285 279 279 287 294 288 285 292 294 294 299 293 287 248 225 220 223 216 209 219 176 240 252 239 230 231 230 228 243 249 253 252 270 263 269 270 266 265 271 263 258 260 260 266 268 269 266 267 273 274 269 265 252 245 267 280 282 265 nan nan nan nan 197 211 212
271 276 275 276 280 283 285 287 293 300 297 297 293 285 284 295 295 292 290 292 288 281 278 284 294 299 292 295 296 291 290 288 280 258 234 227 224 218 215 215 197 206 248 240 231 238 248 244 248 258 257 247 253 263 271 270 262 263 262 253 253 254 249 255 261 262 264 262 261 260 265 250 253 257 251 253 263 nan nan nan nan nan 202 220 230
256 262 268 253 272 282 281 286 293 300 304 305 303 300 301 305 300 308 306 297 297 293 291 292 293 291 291 294 292 284 280 275 272 266 234 220 220 220 213 216 195 192 246 249 248 252 247 241 250 243 260 260 257 266 269 267 265 250 249 251 248 248 249 253 253 252 255 nan 264 263 254 246 236 238 223 211 216 218 217 nan nan nan 236 nan 222
256 262 268 240 272 287 280 282 290 300 308 310 309 308 312 317 317 320 315 311 299 296 297 299 296 288 291 288 283 284 284 282 270 250 223 215 216 227 221 216 186 221 243 247 245 257 263 237 236 250 245 264 267 281 281 271 254 270 269 251 240 238 247 247 246 244 253 260 263 nan 242 214 189 179 197 193 190 206 223 241 nan 242 230 231 236
265 266 249 250 295 289 281 279 280 290 304 309 311 311 307 309 310 310 325 318 288 276 287 292 286 289 290 295 289 284 283 272 244 224 217 227 246 250 240 210 180 244 255 254 251 261 266 250 244 262 263 243 258 269 284 252 266 258 254 255 259 253 234 229 229 234 231 237 246 245 218 195 171 176 197 195 190 214 228 nan 236 238 241 nan 250
273 272 273 312 301 278 282 284 278 271 284 299 308 308 308 305 300 303 315 312 300 286 278 280 283 284 288 291 284 278 276 265 232 227 225 269 277 272 245 206 194 245 259 255 254 259 256 247 246 258 266 264 254 260 250 240 261 nan nan 255 nan 260 267 233 228 209 216 213 228 221 187 180 178 183 221 220 227 nan nan nan 250 nan nan nan nan
286 290 295 305 302 282 280 284 275 263 262 281 291 299 302 301 296 290 291 296 298 290 288 291 292 293 292 285 282 272 268 258 241 248 259 278 271 261 250 226 231 251 253 254 260 259 255 253 254 258 264 269 264 252 233 232 256 245 nan nan nan nan 268 270 253 205 213 214 211 205 179 180 208 209 241 nan nan nan nan nan nan nan nan nan nan
287 291 292 300 302 288 289 290 283 278 283 279 273 287 301 305 301 298 303 310 318 317 315 312 307 308 307 282 274 270 264 251 251 264 270 263 256 246 242 246 244 251 253 252 251 249 252 249 241 255 260 254 268 262 244 230 238 241 247 250 nan nan nan 275 253 nan 217 219 226 212 188 188 nan 229 nan nan nan nan nan nan nan nan nan nan nan
287 282 288 298 298 294 291 293 290 288 289 282 269 274 290 300 304 305 307 312 320 321 309 308 308 301 288 281 274 267 264 259 255 263 270 254 242 237 243 246 246 238 243 255 260 261 255 252 245 248 260 252 254 267 269 260 233 228 227 234 249 247 278 283 260 nan nan nan nan 224 206 nan 233 256 nan nan nan nan nan nan nan nan nan nan nan
290 281 291 289 290 288 285 289 291 289 291 286 275 274 287 296 300 302 306 310 317 320 318 313 304 298 294 280 267 263 252 257 263 260 257 250 245 240 242 246 245 245 248 258 270 264 262 259 261 244 249 256 265 273 271 265 268 245 233 241 239 257 nan nan nan nan nan nan nan nan nan nan nan nan nan nan nan nan nan nan nan nan nan nan nan
281 282 289 289 285 283 284 283 283 288 292 296 287 282 286 294 298 303 310 311 313 313 309 308 306 298 290 277 269 263 256 252 259 258 251 247 240 243 244 246 253 269 251 251 258 268 274 280 269 262 271 265 263 264 270 276 264 265 255 243 247 254 252 nan nan nan nan nan nan nan nan nan nan nan nan nan nan nan nan nan nan nan nan nan nan
279 275 279 283 284 281 279 282 273 273 287 298 292 284 286 289 291 304 311 311 308 307 308 308 303 300 293 285 270 265 262 252 249 250 250 247 246 246 248 252 265 277 259 252 246 257 259 268 276 281 277 274 265 281 283 276 267 265 259 266 253 250 249 247 248 254 244 nan nan nan nan nan nan nan nan nan nan nan nan nan nan nan nan nan nan
272 269 270 274 274 276 273 273 274 258 276 292 289 282 283 286 290 304 312 314 313 311 311 309 303 301 295 280 264 257 244 241 236 241 247 247 246 249 252 251 253 251 258 262 258 265 274 276 277 277 278 282 282 278 274 270 269 267 256 261 261 264 264 262 272 nan nan nan nan nan nan nan nan nan nan nan nan nan nan nan nan nan nan nan nan